OBJECT BA, 67296

Orbit data source: Space-Track

You're viewing an Uncataloged Satellite

Recently launched and/or uncataloged satellites may have evolving metadata. Metadata may include but not limited to: Owner, Maufacturer, Bus, Motor, and Mission.

OBJECT BA, 67296 is a satellite in SSO that was launched on Sun, 28 Dec 2025 UTC via a SOYUZ-2-1B launch vehicle from the Vostochny Cosmodrome (VOSTO). Unknown objects in Earth's orbit typically refer to objects detected orbiting the Earth but have not yet been identified or cataloged. These objects could be anything from previously untracked satellites, spent rocket stages, debris from satellite collisions, or even natural meteoroids temporarily captured by Earth's gravity.

Loading next visibility...
Identifier
67296, 2025-313BA
Orbit
SSO
Country
Flag of TBDTBD
Related business
Manufacturer
Sputniks
Mission
Operational Commercial Communications
Bus & Motor
CUBESAT 3U, Unknown motor
Mass
3 kg wet, 3 kg dry
Launch date (UTC)
2025-12-28 (6 months ago)
Launch vehicle
SOYUZ-2-1B
Launch site
Vostochny Cosmodrome (VOSTO)
Object type
Unknown
Shape & HBR
Box, 0.1 m
Radar Cross Section
0.035 m², Medium (>0.1 m² and < 1m²)

Expand to show TLE details & history
Last TLE update: 21 hours ago

TLE from 21 hours ago
0 OBJECT BA
1 67296U 25313BA  26170.95405129  .00008306  00000-0  33304-3 0  9998
2 67296  97.3939 246.0425 0008000 356.3035   3.8143 15.25235887 26405
Epoch: 2026-06-19T22:53Z
TLE epoch observation values (Epoch: 2026-06-19T22:53:50.031Z)
Latitude
0.00002°
Longitude
-5.59159°
Altitude
487.691 km
Speed
7.624 km/s
True Right ascension
16h 24m 10s
True Declination
0° 00' 00"
Sunlit
Object was in full shadow at epoch
Visualization orbit readout
Latitude
Unknown
Longitude
Unknown
Altitude
Unknown
Speed
Unknown
Apparent Right ascension
Unknown
Apparent Declination
Unknown
Sunlit
N/A
Visualization observer readout
Local Sidereal Time
07:18:47
Azimuth
Unknown
Elevation
Unknown
Doppler factor
Unknown
Orbital elements
Apogee altitude
492.528 km
Perigee altitude
481.543 km
Semi-major axis
6,865.173 km
Eccentricity
0.0008
Inclination
97.3939°
RAAN
246.0425°
Arg. of periapsis
356.3035°
True anomaly
3.8204°
Mean anomaly
3.8143°
Eccentric anomaly
3.81735°
Mean motion
3.81563 °/min
Orbital period
94.35 mins
BSTAR
0.00033304
Loading maneuver chart data...
Computing Atmospheric mass density...
Loading historical data...
Loading historical data...
Loading historical data...
Loading historical data...
Loading historical data...
Loading historical data...
Loading historical data...

Documentation

Showing up to 5 results
|